Theta_e
346 341 338 338 343 348 349 346 339 337 336 336 337 339 338 339 340 340 340 341 344 345 345 343 337 332 329 325 321 319 319 322 324 325 330 336 337 338 338 343 346 344 338
347 342 338 338 341 347 349 346 339 338 337 337 339 340 339 340 342 341 341 341 341 339 336 334 329 325 321 318 317 316 317 320 321 323 325 328 327 335 338 344 345 336 334
347 344 339 339 339 346 348 345 339 339 339 338 340 340 339 341 341 341 339 336 334 329 331 328 322 319 317 314 312 312 314 315 328 336 342 341 326 324 332 339 339 337 335
348 341 343 340 337 343 347 345 341 341 341 340 341 341 340 340 337 338 335 333 328 327 327 321 318 315 313 311 310 311 313 319 334 335 338 344 336 320 323 332 337 336 336
350 341 345 341 338 339 346 346 344 343 343 341 342 342 341 339 334 335 333 329 324 323 320 317 314 312 311 310 310 310 315 325 332 334 336 337 336 327 323 328 339 338 342
352 347 347 340 340 336 341 347 347 346 346 344 344 343 341 338 333 333 331 326 323 321 318 315 313 313 313 313 311 312 317 330 333 339 338 334 340 331 328 335 343 342 335
352 348 347 339 339 334 339 345 349 348 348 346 345 344 341 338 334 332 329 325 322 318 315 315 315 315 316 316 314 314 322 329 338 342 341 340 341 333 331 331 328 326 328
348 349 349 336 340 335 337 340 348 349 350 348 347 345 341 339 337 333 328 324 320 316 316 316 317 317 318 319 319 316 318 327 336 339 340 341 342 338 333 332 333 331 329
345 350 351 337 341 340 335 338 343 349 350 350 349 346 343 340 339 334 327 323 319 317 317 317 318 318 318 319 321 322 321 320 324 336 340 339 340 340 333 333 332 333 331
343 349 355 346 343 349 341 340 341 346 350 350 350 347 345 342 340 332 327 322 318 317 318 319 318 319 319 320 320 320 321 323 323 323 336 336 337 339 335 334 334 332 331
344 347 353 347 349 350 351 345 343 345 348 349 348 347 344 342 337 332 327 326 318 317 318 319 320 319 319 321 320 319 320 320 323 331 334 337 336 335 333 327 335 335 333
345 344 348 345 347 347 345 347 344 345 346 346 345 344 342 338 340 337 334 327 330 323 319 320 320 319 321 321 330 330 326 325 329 330 332 335 335 334 334 326 333 336 336
338 342 347 344 346 345 343 345 345 345 344 341 343 343 340 339 340 339 337 335 331 329 326 322 320 319 320 324 329 332 332 335 333 332 333 334 333 334 332 329 327 331 336
337 340 347 344 345 344 343 345 344 345 342 344 338 343 345 339 338 342 339 339 339 338 333 329 334 334 334 333 331 333 335 336 335 334 333 334 334 333 332 329 330 331 334
335 340 347 348 348 344 345 345 345 342 344 344 344 343 346 342 344 341 345 341 344 341 339 337 334 337 336 335 336 336 335 335 334 333 333 334 333 332 331 329 329 333 335
333 335 341 347 347 346 344 348 349 340 343 343 344 344 342 347 339 346 344 345 342 343 341 340 339 338 338 338 338 337 336 336 335 335 334 333 334 334 332 330 328 331 334
333 335 338 346 345 346 343 348 349 348 341 343 342 344 344 342 347 345 346 343 343 340 340 339 340 341 339 338 337 337 336 337 336 336 335 334 334 335 335 332 329 326 332
333 330 332 342 350 348 345 342 344 349 346 346 343 346 347 345 346 348 346 344 343 342 340 341 338 338 339 338 337 337 337 337 337 338 338 337 337 336 338 336 332 330 325
327 332 329 337 346 346 347 343 343 346 349 347 346 344 347 349 347 345 348 344 344 342 341 340 342 342 341 339 338 340 339 340 342 342 340 340 339 339 338 338 339 332 328
326 330 336 344 348 344 341 342 342 347 347 346 345 344 345 346 347 345 343 347 344 342 340 338 342 342 341 340 343 342 342 341 344 343 342 342 341 341 341 342 342 340 333
324 327 331 340 341 350 348 348 348 348 345 342 342 341 340 339 343 348 348 345 345 342 339 339 338 340 339 344 342 346 345 344 344 344 344 344 344 343 343 344 343 341 340
326 327 330 331 340 343 344 346 346 347 347 345 343 342 338 340 340 344 345 345 343 340 336 336 340 342 344 342 349 348 350 346 347 345 345 344 345 345 344 344 341 339 340
323 326 327 330 332 339 347 341 339 342 344 345 344 341 339 338 336 338 344 343 341 338 336 341 344 344 345 347 347 349 349 344 347 350 347 346 347 346 345 342 344 343 342
324 324 323 325 328 331 332 341 348 349 346 342 343 348 342 340 339 338 339 340 339 336 340 338 345 346 347 346 351 349 348 349 350 350 350 348 346 345 343 343 342 341 341
319 321 321 321 326 328 332 333 335 341 344 340 339 340 346 346 346 341 342 343 342 340 342 345 345 350 350 351 351 351 351 348 347 349 349 347 345 344 344 343 342 343 342
319 320 319 323 322 323 327 330 331 332 337 342 343 337 336 337 336 334 342 345 341 338 337 346 349 349 354 354 352 350 348 350 348 349 347 346 346 343 342 341 340 341 340
Wind_Speed
21 32 31 29 24 22 21 21 21 21 20 19 18 18 18 18 18 18 17 16 15 13 12 10 8 7 7 7 7 7 7 8 8 8 9 9 9 9 8 7 5 5 7
30 31 30 29 26 24 23 22 22 21 21 20 18 18 18 17 16 16 15 14 12 11 9 8 8 7 5 7 7 6 7 7 8 8 8 8 7 7 6 7 8 7 7
25 29 30 28 27 24 24 23 22 22 21 20 20 18 18 16 15 15 13 12 11 10 9 7 7 6 5 6 6 6 6 8 9 7 7 6 7 5 4 4 4 6 6
22 25 25 28 28 25 24 23 23 22 21 21 19 18 17 16 15 13 12 11 10 10 8 6 5 5 4 5 6 6 6 8 7 3 3 4 5 5 4 4 4 5 5
21 23 22 27 27 27 24 23 22 22 20 20 19 18 17 16 15 13 11 10 9 9 8 6 6 6 5 5 5 5 6 7 4 1 5 3 6 4 4 4 2 4 5
21 21 21 28 26 26 25 23 23 23 21 20 18 18 17 16 15 14 12 10 8 7 6 6 5 5 5 4 5 5 5 5 4 3 4 2 2 2 2 3 4 4 2
21 22 22 29 28 26 26 24 23 22 21 20 18 17 17 16 16 14 12 10 8 7 6 6 5 4 4 4 4 5 5 5 4 8 6 5 9 3 3 3 3 3 4
23 24 24 30 29 27 26 26 23 22 20 20 18 18 17 16 14 13 12 11 9 8 7 5 5 5 5 4 4 5 6 7 8 11 8 8 10 6 6 6 5 4 4
24 28 23 30 29 28 28 26 26 22 20 19 17 17 16 16 14 13 12 11 10 8 8 8 7 7 7 7 7 7 8 10 13 11 10 15 13 9 7 10 9 7 5
22 29 23 27 29 24 27 27 26 24 20 19 17 17 16 15 15 14 14 13 11 10 10 10 9 9 9 11 11 11 11 13 13 14 11 16 11 10 8 10 12 11 9
18 29 27 27 25 22 21 26 26 24 23 20 18 17 16 15 15 15 15 12 12 12 12 11 11 11 12 14 14 14 14 15 13 16 17 16 16 13 11 13 13 13 12
8 27 31 29 26 24 22 23 26 25 23 21 19 18 18 16 14 14 13 15 13 13 14 14 14 14 15 15 16 17 18 17 13 17 22 14 13 12 11 13 15 14 15
19 17 33 32 27 25 23 25 24 21 21 22 21 19 18 16 16 14 17 17 16 16 17 17 18 20 19 17 14 20 20 16 14 10 17 16 15 14 13 13 16 16 16
11 20 32 35 30 25 21 26 24 23 25 23 27 23 19 21 18 18 17 17 15 14 17 19 20 18 14 14 17 19 18 18 17 17 16 19 15 15 14 15 17 17 17
5 8 8 31 29 29 26 24 24 25 27 25 25 27 25 23 21 21 17 19 20 15 17 17 19 22 23 19 18 21 20 21 21 20 17 19 16 15 16 16 18 19 17
7 7 3 25 27 27 28 16 14 28 26 27 25 28 28 23 24 21 23 20 21 18 16 21 21 19 21 21 19 21 23 22 21 19 18 19 21 21 20 19 19 21 20
12 7 10 7 29 26 30 18 13 14 23 28 25 27 30 29 24 26 23 24 24 23 20 22 17 12 19 19 20 20 20 19 21 22 23 21 19 21 21 21 20 21 23
12 13 15 11 19 25 24 26 21 11 16 17 23 22 29 31 28 21 24 25 25 22 23 22 23 22 21 22 25 21 20 20 21 21 21 22 21 20 21 20 24 21 23
6 6 12 16 12 25 21 25 22 22 20 12 14 25 19 26 28 32 24 27 21 23 24 18 18 21 21 24 23 21 21 20 19 18 22 22 21 19 20 21 17 23 23
4 4 9 14 10 25 24 25 16 21 25 19 19 22 21 26 27 30 32 26 23 24 26 22 20 19 23 23 19 21 20 22 21 22 22 20 19 18 20 20 18 14 21
7 5 8 11 16 18 28 27 25 23 23 29 31 33 25 25 27 33 28 30 26 24 25 23 26 22 28 25 19 21 22 24 27 28 22 19 20 21 21 20 17 16 16
8 10 9 9 13 18 28 19 15 19 22 24 25 27 31 23 30 34 34 29 30 32 29 31 30 24 23 25 13 15 4 11 24 34 29 22 21 21 20 22 16 14 15
12 9 6 5 6 11 13 22 18 18 20 15 21 27 30 33 37 28 30 28 25 27 27 32 34 29 22 22 30 14 2 3 4 14 25 21 19 17 17 10 11 14 17
12 13 4 3 3 5 7 10 20 19 20 23 22 14 23 24 32 31 30 30 34 30 31 36 36 34 25 23 19 30 23 4 1 4 13 21 18 14 17 19 17 17 17
15 6 9 4 3 8 5 6 8 11 17 27 26 26 24 11 17 29 25 28 23 25 31 31 40 35 27 26 25 15 18 15 17 8 4 4 14 13 18 16 14 15 17
3 10 11 11 6 5 8 3 10 10 9 15 21 28 33 37 43 31 16 18 16 26 40 26 34 40 31 25 25 25 14 7 11 8 4 5 7 15 17 14 13 12 7
Wind_Direction
137 150 152 149 155 158 158 157 155 152 149 146 145 143 139 137 134 131 130 129 128 127 124 124 119 108 102 90 87 86 85 86 89 88 90 94 91 87 89 70 51 99 81
145 152 153 151 155 160 162 162 159 157 153 152 151 147 145 142 140 137 135 134 132 125 123 125 117 113 111 107 100 94 92 96 96 99 103 106 89 95 88 87 96 81 86
139 154 154 155 154 162 164 165 163 162 158 159 156 154 151 149 146 142 140 137 133 130 129 126 123 124 125 112 105 101 101 100 109 127 135 119 79 83 100 88 78 83 94
144 157 161 161 156 163 169 169 168 167 165 164 161 158 157 154 150 147 146 142 137 132 132 134 132 130 126 119 117 119 112 121 125 142 229 232 124 82 105 107 85 86 98
144 157 171 167 163 164 171 173 172 171 171 169 166 164 163 159 153 153 152 149 145 146 147 148 143 140 135 123 123 120 124 132 144 213 341 98 122 99 98 122 45 75 128
147 157 179 172 171 167 171 177 179 177 175 175 172 171 170 164 159 161 160 158 159 157 150 157 155 149 141 137 137 138 148 158 219 281 267 167 165 70 114 153 154 176 185
157 162 180 179 174 172 173 180 184 185 181 179 178 179 178 173 169 169 167 168 172 166 169 175 175 174 165 170 170 167 177 208 268 298 245 212 207 226 216 187 181 188 185
163 167 182 183 180 175 177 181 187 190 189 186 185 186 185 182 181 177 176 180 182 182 188 192 197 210 213 213 213 211 215 231 253 269 261 229 240 255 242 222 214 200 198
169 161 177 182 185 179 181 183 185 194 192 193 192 194 194 191 190 189 188 193 193 197 204 208 212 223 230 239 243 244 247 248 259 268 287 248 246 244 250 238 232 230 232
175 160 161 176 181 183 183 185 187 192 196 198 199 201 203 201 201 202 200 203 206 209 220 228 227 232 242 247 248 250 254 259 264 271 272 262 248 234 255 250 235 237 242
184 159 159 168 174 181 178 184 188 193 195 200 204 206 207 206 213 215 215 215 218 222 227 233 238 245 246 251 255 263 266 267 267 268 269 264 234 242 261 251 237 235 240
212 159 156 167 173 180 182 190 186 191 194 199 205 209 207 202 218 217 229 221 226 235 239 239 243 248 251 255 268 271 260 265 263 262 274 260 229 237 262 259 241 236 238
328 178 158 167 174 181 189 191 179 186 191 198 200 205 211 202 208 224 223 227 234 239 246 248 246 245 248 254 252 265 258 257 247 254 275 270 245 242 259 266 246 237 239
339 306 154 164 170 184 196 185 183 182 188 193 201 200 202 197 208 215 216 227 235 229 240 237 249 252 247 249 247 258 260 261 256 269 293 272 251 252 262 266 245 237 243
313 285 154 159 167 180 202 182 185 189 190 190 200 199 197 206 205 211 216 222 226 225 235 237 233 245 239 241 244 252 258 263 267 272 275 283 277 266 263 267 253 243 242
170 258 116 169 173 182 204 226 199 189 198 190 199 199 205 204 209 210 219 223 232 228 227 236 229 232 241 243 249 255 253 254 258 267 269 266 275 272 266 264 265 248 241
175 197 248 174 183 188 208 232 257 202 199 196 199 202 206 205 209 216 217 224 225 234 235 238 235 237 236 249 250 254 259 257 260 258 261 263 272 279 270 259 263 256 245
157 194 218 220 185 180 191 219 237 269 225 197 200 217 209 208 206 220 220 224 227 227 239 243 245 247 251 251 254 250 251 258 255 254 258 257 253 261 277 270 255 256 249
148 194 206 209 197 186 189 215 210 220 259 221 213 220 216 205 215 221 229 230 236 230 234 243 246 243 248 252 253 255 250 251 250 255 253 248 249 253 259 271 280 256 250
138 194 225 204 156 191 202 215 207 221 233 236 239 239 224 217 220 231 226 235 238 235 237 240 244 240 249 252 254 258 253 253 250 245 249 249 244 246 256 255 261 268 254
162 199 209 206 197 170 184 191 185 196 215 236 241 240 242 238 231 220 228 229 233 228 232 238 241 243 250 251 255 261 261 254 252 246 240 243 242 250 255 247 239 256 258
185 202 199 199 207 205 206 207 197 179 211 215 239 240 233 237 232 225 225 224 231 241 239 245 235 225 240 246 237 237 271 268 241 240 241 238 242 248 254 229 234 242 246
194 205 233 207 209 202 209 217 224 222 213 216 233 241 241 242 242 229 223 229 233 243 252 247 231 222 219 243 232 220 261 247 2 213 224 225 237 238 233 210 219 236 246
178 182 210 304 307 267 234 212 190 204 228 222 238 254 251 242 239 236 232 236 239 242 248 247 244 234 214 228 235 226 232 250 319 321 205 219 229 225 231 239 250 249 248
218 159 175 229 207 277 235 185 245 213 249 258 243 237 256 266 231 235 226 219 239 256 268 253 248 243 221 217 231 214 212 231 241 230 256 282 208 230 238 241 241 243 250
220 199 211 185 217 208 258 185 259 236 271 263 254 246 240 246 253 253 227 252 252 261 269 266 273 256 222 223 228 236 203 181 214 210 220 236 247 222 234 223 226 229 227